Regional Weather Roundup
Issued by NWS

Home | Current Version | Previous Version | Text Only | Print | Product List | Glossary Off
Versions: 1 2 3 4 5 6 7 8 9 10 11 12 13 14 15 16 17 18 19 20 21 22 23 24 25 26 27 28 29 30 31 32 33 34 35 36 37 38 39 40 41 42 43 44 45 46 47 48 49 50

000
ASUS43 KIND 270209
RWRIN

WEATHER ROUNDUP FOR INDIANA
NATIONAL WEATHER SERVICE INDIANAPOLIS IN
1000 PM EDT TUE JUL 26 2016

NOTE: "FAIR" INDICATES FEW OR NO CLOUDS BELOW 12,000 FEET WITH NO
SIGNIFICANT WEATHER AND/OR OBSTRUCTIONS TO VISIBILITY.

* - STATION DOES NOT REPORT WEATHER SUCH AS PRECIPITATION OR FOG.

+ - STATION NOT QUALITY CONTROLLED BY THE NATIONAL WEATHER SERVICE.
    USE DATA WITH CAUTION...ESPECIALLY DEWPOINT AND RELATIVE
    HUMIDITY OBSERVATIONS.

INZ001>003-010>013-019-020-270300-
NORTHWEST INDIANA

CITY           SKY/WX    TMP DP  RH WIND       PRES   REMARKS
GARY /AIRPORT/ PTCLDY    77  70  78 N3        30.02F
KNOX *+        CLEAR     70  63  78 CALM      30.01F
LA PORTE +     CLEAR     72  70  92 CALM      30.03S
MICHIGAN CITY+ PTCLDY    70  68  94 CALM      30.02F
MONTICELLO +   CLEAR     74  67  79 CALM      30.01R
RENSSELAER +   CLEAR     72  70  94 CALM      30.02R
VALPARAISO     CLEAR     75  63  66 N3        30.02F

$$

LMZ046-743>745-270300-
SOUTHERN LAKE MICHIGAN

STATION/POSITION TIME  TEMP    WIND        PRES    WAVE
                       AIR SEA DIR/SP/G            HT
                 (UTC) (F)     (DEG/KT/KT) (MB)    (FT)
BURNS HARBOR     0100   77      80/  5/  6 1016.9R
MICHIGAN CITY    0100   77      20/  4/  4   N/A
5NW MICH CITY    0200   76 77   60/  4/  4   N/A     0

$$

INZ004-005-014>016-021>024-270300-
NORTH CENTRAL INDIANA

CITY           SKY/WX    TMP DP  RH WIND       PRES   REMARKS
GOSHEN         PTCLDY    74  63  68 NW5       30.02R
LOGANSPORT +   CLEAR     72  64  78 NW3       30.03R
PERU/GRISSOM   CLEAR     75  66  73 NW2       30.01R
ROCHESTER +    CLEAR     75  68  78 CALM      30.03R
SOUTH BEND     CLEAR     72  65  78 N3        30.03R
WARSAW +       CLEAR     72  64  78 CALM      30.02R

$$

INZ006>009-017-018-025>027-270300-
NORTHEAST INDIANA

CITY           SKY/WX    TMP DP  RH WIND       PRES   REMARKS
ANGOLA *+        N/A     72  63  73 CALM      30.03R
AUBURN +       CLEAR     77  61  57 N3        30.02R
FORT WAYNE     PTCLDY    73  65  75 W6        30.01S
HUNTINGTON +   CLEAR     72  66  80 CALM      30.02R

$$

INZ028-029-035-036-043>045-051>053-270300-
WEST CENTRAL INDIANA

CITY           SKY/WX    TMP DP  RH WIND       PRES   REMARKS
CRAWFORDSVL +  CLOUDY    68  68 100 CALM      30.02S
GREENCASTLE +  PTCLDY    73  72  94 NE5       30.02S
LAFAYETTE      CLEAR     73  68  84 CALM      30.01R
TERRE HAUTE    PTCLDY    75  70  84 N6        30.00R

$$

INZ030>032-037>040-046>048-054>057-064-065-270300-
CENTRAL INDIANA

CITY           SKY/WX    TMP DP  RH WIND       PRES   REMARKS
COLUMBUS       CLEAR     73  73 100 CALM      30.01R
INDIANAPOLIS   PTCLDY    77  63  61 E6        30.02R
-EAGLE CREEK   CLOUDY    77  67  71 CALM      30.01R
KOKOMO *+      MOCLDY    72  63  73 CALM      30.02R
MARION +       CLEAR     71  66  83 CALM      30.03R
MT COMFORT *+  PTCLDY    70  68  94 CALM      30.03R
SHELBYVILLE    MOCLDY    75  69  81 NE5       30.01S
ZIONSVILLE +   CLEAR     70  67  91 CALM      30.03S

$$

INZ033-034-041-042-049-050-058-059-270300-
EAST CENTRAL INDIANA

CITY           SKY/WX    TMP DP  RH WIND       PRES   REMARKS
MUNCIE         CLEAR     74  67  78 CALM      30.03R

$$

INZ060-061-067>069-081>083-085>088-270300-
SOUTHWEST INDIANA

CITY           SKY/WX    TMP DP  RH WIND       PRES   REMARKS
EVANSVILLE     CLOUDY    80  76  87 CALM      29.98R
HUNTINGBURG *+ CLOUDY    81  73  78 CALM      29.99R
WASHINGTON +   CLOUDY    78  78 100 MISG      29.98R

$$

INZ062-063-066-070>080-084-089>092-270300-
SOUTH CENTRAL AND SOUTHEAST INDIANA

CITY           SKY/WX    TMP DP  RH WIND       PRES   REMARKS
BLOOMINGTON    MOCLDY    78  71  79 NE5       30.01R
MADISON *+     CLOUDY    73  70  88 NE3       30.03S
NORTH VERNON + CLOUDY   N/A N/A N/A CALM      30.01R

$$





USA.gov is the U.S. government's official web portal to all federal, state and local government web resources and services.